TimeMDT,TemperatureF,Dew PointF,Humidity,Sea Level PressureIn,VisibilityMPH,Wind Direction,Wind SpeedMPH,Gust SpeedMPH,PrecipitationIn,Events,Conditions,WindDirDegrees,DateUTC
12:15 AM,60.8,39.2,45,30.45,10.0,Calm,Calm,-,N/A,,Clear,0,2013-07-01 06:15:00
12:35 AM,60.8,37.4,42,30.45,10.0,Calm,Calm,-,N/A,,Clear,0,2013-07-01 06:35:00
12:55 AM,60.8,39.2,45,30.45,10.0,South,5.8,-,N/A,,Clear,170,2013-07-01 06:55:00
1:15 AM,59.0,41.0,51,30.46,10.0,SE,6.9,-,N/A,,Clear,140,2013-07-01 07:15:00
1:35 AM,57.2,41.0,55,30.46,10.0,ESE,5.8,-,N/A,,Clear,110,2013-07-01 07:35:00
1:55 AM,55.4,41.0,58,30.46,10.0,ESE,5.8,-,N/A,,Clear,120,2013-07-01 07:55:00
2:15 AM,57.2,41.0,55,30.46,10.0,Calm,Calm,-,N/A,,Clear,0,2013-07-01 08:15:00
2:35 AM,57.2,39.2,51,30.46,10.0,East,3.5,-,N/A,,Clear,90,2013-07-01 08:35:00
2:55 AM,55.4,39.2,54,30.46,10.0,ESE,6.9,-,N/A,,Clear,110,2013-07-01 08:55:00
3:15 AM,55.4,41.0,58,30.46,10.0,ESE,5.8,-,N/A,,Clear,120,2013-07-01 09:15:00
3:35 AM,55.4,41.0,58,30.46,10.0,SE,4.6,-,N/A,,Clear,130,2013-07-01 09:35:00
3:55 AM,55.4,39.2,54,30.46,10.0,ESE,8.1,-,N/A,,Clear,120,2013-07-01 09:55:00
4:15 AM,53.6,39.2,58,30.46,10.0,ESE,5.8,-,N/A,,Clear,110,2013-07-01 10:15:00
4:35 AM,53.6,37.4,54,30.47,10.0,East,4.6,-,N/A,,Clear,100,2013-07-01 10:35:00
4:55 AM,53.6,39.2,58,30.47,10.0,ESE,5.8,-,N/A,,Clear,110,2013-07-01 10:55:00
5:15 AM,53.6,37.4,54,30.47,10.0,East,3.5,-,N/A,,Clear,90,2013-07-01 11:15:00
5:35 AM,53.6,37.4,54,30.48,10.0,SSE,4.6,-,N/A,,Clear,160,2013-07-01 11:35:00
5:55 AM,51.8,41.0,67,30.49,10.0,Calm,Calm,-,N/A,,Clear,0,2013-07-01 11:55:00
6:15 AM,51.8,39.2,62,30.50,10.0,Calm,Calm,-,N/A,,Clear,0,2013-07-01 12:15:00
6:35 AM,51.8,39.2,62,30.50,10.0,SE,5.8,-,N/A,,Clear,140,2013-07-01 12:35:00
6:55 AM,51.8,39.2,62,30.50,10.0,ESE,6.9,-,N/A,,Clear,110,2013-07-01 12:55:00
7:15 AM,53.6,41.0,62,30.51,10.0,Calm,Calm,-,N/A,,Clear,0,2013-07-01 13:15:00
7:35 AM,55.4,41.0,58,30.51,10.0,Calm,Calm,-,N/A,,Scattered Clouds,0,2013-07-01 13:35:00
7:55 AM,59.0,41.0,51,30.51,10.0,Calm,Calm,-,N/A,,Scattered Clouds,0,2013-07-01 13:55:00
8:15 AM,60.8,41.0,48,30.51,10.0,Calm,Calm,-,N/A,,Scattered Clouds,0,2013-07-01 14:15:00
8:35 AM,62.6,41.0,45,30.51,10.0,Calm,Calm,-,N/A,,Clear,0,2013-07-01 14:35:00
8:55 AM,62.6,39.2,42,30.51,10.0,Calm,Calm,-,N/A,,Clear,0,2013-07-01 14:55:00
9:15 AM,64.4,41.0,42,30.51,10.0,Calm,Calm,-,N/A,,Clear,0,2013-07-01 15:15:00
9:35 AM,64.4,41.0,42,30.51,10.0,Calm,Calm,-,N/A,,Clear,0,2013-07-01 15:35:00
9:55 AM,68.0,39.2,35,30.50,10.0,WSW,3.5,-,N/A,,Clear,250,2013-07-01 15:55:00
10:15 AM,69.8,37.4,31,30.50,10.0,WSW,6.9,-,N/A,,Clear,240,2013-07-01 16:15:00
10:35 AM,69.8,37.4,31,30.49,10.0,WSW,8.1,-,N/A,,Scattered Clouds,240,2013-07-01 16:35:00
10:55 AM,71.6,39.2,31,30.49,10.0,West,4.6,-,N/A,,Scattered Clouds,270,2013-07-01 16:55:00
11:15 AM,69.8,37.4,31,30.49,10.0,West,12.7,18.4,N/A,,Mostly Cloudy,260,2013-07-01 17:15:00
11:35 AM,69.8,37.4,31,30.48,10.0,West,9.2,-,N/A,,Mostly Cloudy,260,2013-07-01 17:35:00
11:55 AM,71.6,37.4,29,30.48,10.0,WSW,15.0,21.9,N/A,,Mostly Cloudy,250,2013-07-01 17:55:00
12:15 PM,71.6,35.6,27,30.47,10.0,West,5.8,16.1,N/A,Thunderstorm,Mostly Cloudy,280,2013-07-01 18:15:00
12:35 PM,73.4,35.6,25,30.47,10.0,NNW,5.8,19.6,N/A,,Mostly Cloudy,340,2013-07-01 18:35:00
12:55 PM,75.2,32.0,21,30.47,10.0,WNW,9.2,18.4,N/A,,Scattered Clouds,290,2013-07-01 18:55:00
1:15 PM,73.4,32.0,22,30.47,10.0,WNW,6.9,17.3,N/A,,Scattered Clouds,290,2013-07-01 19:15:00
1:35 PM,75.2,32.0,21,30.47,10.0,NNW,10.4,23.0,N/A,,Mostly Cloudy,330,2013-07-01 19:35:00
1:55 PM,77.0,32.0,19,30.47,10.0,North,5.8,-,N/A,,Scattered Clouds,350,2013-07-01 19:55:00
2:15 PM,73.4,30.2,20,30.46,10.0,NNW,8.1,-,N/A,,Scattered Clouds,340,2013-07-01 20:15:00
2:35 PM,77.0,32.0,19,30.45,10.0,South,4.6,-,N/A,,Scattered Clouds,190,2013-07-01 20:35:00
2:55 PM,77.0,32.0,19,30.45,10.0,NNE,4.6,-,N/A,,Scattered Clouds,20,2013-07-01 20:55:00
3:15 PM,77.0,30.2,18,30.44,10.0,North,4.6,-,N/A,,Scattered Clouds,360,2013-07-01 21:15:00
3:35 PM,78.8,30.2,17,30.45,10.0,NW,5.8,-,N/A,,Clear,320,2013-07-01 21:35:00
3:55 PM,77.0,30.2,18,30.43,10.0,NNE,3.5,-,N/A,,Scattered Clouds,20,2013-07-01 21:55:00
4:15 PM,77.0,30.2,18,30.43,10.0,North,5.8,-,N/A,,Mostly Cloudy,360,2013-07-01 22:15:00
4:35 PM,77.0,30.2,18,30.42,10.0,NNW,4.6,-,N/A,,Scattered Clouds,340,2013-07-01 22:35:00
4:55 PM,77.0,30.2,18,30.42,10.0,NW,9.2,17.3,N/A,,Scattered Clouds,320,2013-07-01 22:55:00
5:15 PM,77.0,28.4,17,30.42,10.0,North,6.9,-,N/A,,Scattered Clouds,10,2013-07-01 23:15:00
5:35 PM,77.0,28.4,17,30.42,10.0,North,4.6,-,N/A,,Clear,360,2013-07-01 23:35:00
5:55 PM,75.2,28.4,18,30.41,10.0,Calm,Calm,-,N/A,,Clear,0,2013-07-01 23:55:00
6:15 PM,73.4,30.2,20,30.41,10.0,North,4.6,-,N/A,,Clear,10,2013-07-02 00:15:00
6:35 PM,77.0,30.2,18,30.40,10.0,NW,9.2,-,N/A,,Scattered Clouds,310,2013-07-02 00:35:00
6:55 PM,73.4,32.0,22,30.40,10.0,NNE,4.6,-,N/A,,Scattered Clouds,30,2013-07-02 00:55:00
7:15 PM,73.4,32.0,22,30.41,10.0,North,3.5,-,N/A,,Clear,360,2013-07-02 01:15:00
7:35 PM,73.4,32.0,22,30.42,10.0,NW,3.5,-,N/A,,Clear,310,2013-07-02 01:35:00
7:55 PM,73.4,28.4,19,30.42,10.0,NNW,8.1,-,N/A,,Clear,340,2013-07-02 01:55:00
8:15 PM,71.6,26.6,19,30.42,10.0,NW,5.8,-,N/A,,Clear,310,2013-07-02 02:15:00
8:35 PM,71.6,28.4,20,30.42,10.0,WNW,9.2,21.9,N/A,,Clear,300,2013-07-02 02:35:00
8:55 PM,71.6,30.2,22,30.42,10.0,NW,8.1,-,N/A,,Clear,310,2013-07-02 02:55:00
9:15 PM,71.6,30.2,22,30.43,10.0,NNE,4.6,-,N/A,,Clear,20,2013-07-02 03:15:00
9:35 PM,71.6,30.2,22,30.44,10.0,NNW,3.5,16.1,N/A,,Clear,330,2013-07-02 03:35:00
9:55 PM,69.8,30.2,23,30.44,10.0,Calm,Calm,-,N/A,,Clear,0,2013-07-02 03:55:00
10:15 PM,69.8,32.0,25,30.45,10.0,NNE,4.6,-,N/A,,Clear,20,2013-07-02 04:15:00
10:35 PM,68.0,30.2,24,30.45,10.0,Calm,Calm,-,N/A,,Clear,0,2013-07-02 04:35:00
10:55 PM,69.8,30.2,23,30.46,10.0,Calm,Calm,-,N/A,,Clear,0,2013-07-02 04:55:00
11:15 PM,68.0,30.2,24,30.46,10.0,Calm,Calm,-,N/A,,Clear,0,2013-07-02 05:15:00
11:35 PM,64.4,32.0,30,30.46,10.0,Calm,Calm,-,N/A,,Clear,0,2013-07-02 05:35:00
11:55 PM,62.6,32.0,32,30.47,10.0,SE,3.5,-,N/A,,Clear,140,2013-07-02 05:55:00